Weather History for KPSP - January, 2014

Change the Weather History Date:

Tuesday, January 21, 2014

  Actual Average Record
Temperature  
Mean Temperature 64 °F 58 °F  
Max Temperature 76 °F 70 °F 92 °F (1944)
Min Temperature 52 °F 46 °F 24 °F (1937)
Degree Days  
Heating Degree Days 1 7  
Month to date heating degree days 67 171  
Since 1 July heating degree days 348 557  
Cooling Degree Days 0 0  
Month to date cooling degree days 20 0  
Year to date cooling degree days 20 0  
Growing Degree Days 14 (Base 50)    
Moisture  
Dew Point 15 °F    
Average Humidity 15    
Maximum Humidity 19    
Minimum Humidity 10    
Precipitation  
Precipitation 0.00 in 0.03 in 1.69 in (2010)
Month to date precipitation 0.00 0.83  
Year to date precipitation 0.00 0.83  
Since 1 July precipitation 1.26  
Snow  
Snow 0.00 in - - ()
Month to date snowfall 0.0  
Year to date snowfall 0.0  
Since 1 July snowfall 0.0  
Snow Depth 0.00 in    
Sea Level Pressure  
Sea Level Pressure 30.16 in    
Wind  
Wind Speed 6 mph (NNW)    
Max Wind Speed 10 mph    
Max Gust Speed 12 mph    
Visibility 10 miles    
Events      
T = Trace of Precipitation, MM = Missing Value Source: NWS Daily Summary

Daily Weather History Graph

Daily Weather History Graph

Search for Another Location

Airport or City:

Trip Planner

Search our weather history database for the weather conditions in past years. The results will help you decide how hot, cold, wet, or windy it might be!

Date:

Astronomy

Jan. 21, 2014 Rise Set
Actual Time 6:48 AM PST 5:06 PM PST
Civil Twilight 6:22 AM PST 5:33 PM PST
Nautical Twilight 5:51 AM PST 6:03 PM PST
Astronomical Twilight 5:21 AM PST 6:33 PM PST
Moon 10:25 PM PST (1/21) 9:37 AM PST (1/21)
Length of Visible Light 11h 10m
Length of Day
10h 17m
Waning Gibbous, 73% of the Moon is Illuminated
Jan 21
Waning Gibbous
Jan 23
Last Quarter
Jan 30
New
Feb 6
First Quarter
Feb 14
Full

Hourly Weather History & Observations

Time (PST) Temp. Dew Point Humidity Pressure Visibility Wind Dir Wind Speed Gust Speed Precip Events Conditions
12:53 AM 57.0 °F 10.0 °F 15% 30.19 in 10.0 mi NNW 8.1 mph - N/A   Clear
1:53 AM 55.0 °F 10.0 °F 17% 30.19 in 10.0 mi NNW 9.2 mph - N/A   Clear
2:53 AM 52.0 °F 10.0 °F 19% 30.19 in 10.0 mi NNW 9.2 mph - N/A   Clear
3:53 AM 57.9 °F 7.0 °F 13% 30.18 in 10.0 mi NW 8.1 mph - N/A   Clear
4:53 AM 57.9 °F 9.0 °F 14% 30.18 in 10.0 mi NW 5.8 mph - N/A   Clear
5:53 AM 57.0 °F 8.1 °F 14% 30.20 in 10.0 mi NW 6.9 mph - N/A   Clear
6:53 AM 55.9 °F 10.9 °F 17% 30.21 in 10.0 mi NNW 5.8 mph - N/A   Mostly Cloudy
7:53 AM 57.9 °F 10.0 °F 15% 30.22 in 10.0 mi NNW 6.9 mph - N/A   Mostly Cloudy
8:53 AM 64.0 °F 10.0 °F 12% 30.23 in 10.0 mi Calm Calm - N/A   Clear
9:53 AM 72.0 °F 23.0 °F 16% 30.23 in 10.0 mi Calm Calm - N/A   Mostly Cloudy
10:53 AM 73.0 °F 23.0 °F 15% 30.21 in 10.0 mi ESE 3.5 mph - N/A   Clear
11:53 AM 73.0 °F 17.1 °F 12% 30.17 in 10.0 mi ESE 5.8 mph - N/A   Mostly Cloudy
12:53 PM 73.0 °F 15.1 °F 11% 30.14 in 10.0 mi SE 6.9 mph - N/A   Clear
1:53 PM 73.9 °F 15.1 °F 11% 30.12 in 10.0 mi Calm Calm - N/A   Overcast
2:53 PM 75.0 °F 16.0 °F 11% 30.12 in 10.0 mi SE 5.8 mph - N/A   Overcast
3:53 PM 73.9 °F 19.0 °F 13% 30.12 in 10.0 mi Calm Calm - N/A   Overcast
4:53 PM 71.1 °F 23.0 °F 16% 30.11 in 10.0 mi Calm Calm - N/A   Clear
5:53 PM 69.1 °F 25.0 °F 19% 30.11 in 10.0 mi Calm Calm - N/A   Clear
6:53 PM 64.9 °F 19.9 °F 18% 30.11 in 10.0 mi NW 3.5 mph - N/A   Clear
7:53 PM 63.0 °F 15.1 °F 16% 30.12 in 10.0 mi NNW 4.6 mph - N/A   Clear
8:53 PM 62.1 °F 12.0 °F 14% 30.11 in 10.0 mi NNW 4.6 mph - N/A   Clear
9:53 PM 62.1 °F 12.0 °F 14% 30.11 in 10.0 mi WNW 3.5 mph - N/A   Clear
10:53 PM 62.1 °F 19.0 °F 19% 30.09 in 10.0 mi NNW 5.8 mph - N/A   Clear
11:53 PM 64.9 °F 12.9 °F 13% 30.08 in 10.0 mi West 4.6 mph - N/A   Clear